« Back
NWS Peachtree City, Ga » Text Product » GA Regional Weather Roundup


Printer-friendly Version
Current Version              Previous Versions:   1  2  3  4  5  6  7  8  9  

Regional Weather Roundup

497
ASUS42 KFFC 010603
RWRGA
WEATHER ROUNDUP FOR GEORGIA
NATIONAL WEATHER SERVICE PEACHTREE CITY GA
200 AM EDT WED APR 01 2015

NOTE: "FAIR" INDICATES FEW OR NO CLOUDS BELOW 12,000 FEET WITH NO
SIGNIFICANT WEATHER AND/OR OBSTRUCTIONS TO VISIBILITY.

* = USE WITH CAUTION. THE STATIONS MARKED WITH AN ASTERISK MAY NOT
REPORT WEATHER SUCH AS PRECIPITATION, FOG, OR THUNDER AND ARE NOT
QUALITY CONTROLLED BY NWS.

THE REMARK "TC" DENOTES TEMPERATURE READING IN DEGREES CELSIUS.

GAZ001>058-010700-
NORTH GEORGIA

CITY           SKY/WX    TMP DP  RH WIND       PRES   REMARKS
ATLANTA        TSTM      59  54  83 N6        29.98F FOG
6HR MIN TEMP:  59; 6HR MAX TEMP:  66; 6HR PCP:  0.20;

ATHENS         CLOUDY    61  53  75 SW3       29.95S
6HR MIN TEMP:  61; 6HR MAX TEMP:  71;

CHAMBLEE       RAIN      59  54  83 W10       29.98R
6HR MIN TEMP:  59; 6HR MAX TEMP:  68; 6HR PCP:  0.06;

PEACHTREE CITY CLOUDY    58  57  97 CALM      29.99S FOG
6HR MIN TEMP:  57; 6HR MAX TEMP:  63; 6HR PCP:  0.63;

ROME           CLOUDY    61  56  83 SW5       29.95S
6HR MIN TEMP:  60; 6HR MAX TEMP:  69; 6HR PCP: TRACE;

WEST ATLANTA   TSTM      58  56  93 S5        29.98R
6HR MIN TEMP:  58; 6HR MAX TEMP:  68; 6HR PCP:  0.20;

GAINESVILLE    MOCLDY    62  54  74 W12       29.97R
6HR MIN TEMP:  62; 6HR MAX TEMP:  68;

CARTERSVILLE   CLOUDY    60  51  72 SW5       29.98R
6HR MIN TEMP:  59; 6HR MAX TEMP:  66; 6HR PCP: TRACE;



CITY           SKY/WX    TMP DP  RH WIND       PRES   REMARKS
DALTON*        MOCLDY    59  55  88 CALM      29.95S
MARIETTA       CLOUDY    59  55  88 SW8       29.97R
$$

GAZ059>098-102>109-010700-
CENTRAL GEORGIA

CITY           SKY/WX    TMP DP  RH WIND       PRES   REMARKS
AUGUSTA-BUSH   CLOUDY    66  50  56 W7        29.93F
6HR MIN TEMP:  66; 6HR MAX TEMP:  75;

AUGUSTA-DANIEL CLOUDY    68  50  52 MISG      29.94F
6HR MIN TEMP:  68; 6HR MAX TEMP:  76;

COLUMBUS       CLEAR     60  53  77 CALM      29.99S
6HR MIN TEMP:  60; 6HR MAX TEMP:  76;

MACON          LGT RAIN  58  57  97 SW7       30.00S
6HR MIN TEMP:  55; 6HR MAX TEMP:  68; 6HR PCP:  0.35;

ROBINS AFB     DRIZZLE   59  57  94 SW5         N/A


CITY           SKY/WX    TMP DP  RH WIND       PRES   REMARKS
LAGRANGE*      MOCLDY    57  57  99 CALM      29.99S FOG
SYLVANIA*      CLOUDY    63  56  77 W5        29.96F
MILLEDGEVILLE* RAIN      59  59 100 CALM      29.96F
$$

GAZ099>101-110>166-010700-
SOUTH GEORGIA

CITY           SKY/WX    TMP DP  RH WIND       PRES   REMARKS
SAVANNAH       CLOUDY    61  58  90 S3        29.96F
6HR MIN TEMP:  60; 6HR MAX TEMP:  74; 6HR PCP:  0.03;

VALDOSTA       CLEAR     65  60  84 VRB3      30.04S
6HR MIN TEMP:  65; 6HR MAX TEMP:  75;

ALMA           PTCLDY    59  56  89 S5        30.02F
6HR MIN TEMP:  58; 6HR MAX TEMP:  72;

ST SIMONS      PTCLDY    64  53  67 W3        30.02F
6HR MIN TEMP:  64; 6HR MAX TEMP:  75;

FT STEWART     CLOUDY    60  58  92 S7        29.96F
ALBANY         CLEAR     66  60  81 SW6       30.03S
HUNTER AFB     CLOUDY    60  60 100 E2        29.93F
MOODY AFB      CLEAR     65  59  80 SW5       30.02F
BRUNSWICK      PTCLDY    61  54  77 W5        30.03F


CITY           SKY/WX    TMP DP  RH WIND       PRES   REMARKS
BAINBRIDGE*    CLEAR     68  64  88 SW8       30.02F
MOULTRIE*      CLEAR     64  63  94 SW6       30.03F
VIDALIA*       CLOUDY    59  59 100 SW6       29.98R
WAYCROSS*      PTCLDY    64  58  82 SW3       30.04S
DOUGLAS*       CLEAR     63  55  77 CALM      30.05S
$$



USA.gov is the U.S. government's official web portal to all federal, state and local government web resources and services.